Time,TemperatureF,DewpointF,PressureIn,WindDirection,WindDirectionDegrees,WindSpeedMPH,WindSpeedGustMPH,Humidity,HourlyPrecipIn,Conditions,Clouds,dailyrainin,SoftwareType,DateUTC
2013-01-31 00:01:00,-3.0,-6.0,-100.00,NW,315,20.0,25.0,86,-99.99,,,-99.99,,2013-01-31 06:01:00,
2013-01-31 08:03:00,-10.0,-13.0,-100.00,NNW,330,21.0,29.0,85,-99.99,,,-99.99,,2013-01-31 14:03:00,
2013-01-31 08:11:00,-10.0,-13.0,-100.00,NNW,330,21.0,29.0,85,-99.99,,,-99.99,,2013-01-31 14:11:00,
2013-01-31 08:22:00,-10.0,-13.0,-100.00,NNW,330,21.0,29.0,85,-99.99,,,-99.99,,2013-01-31 14:22:00,
2013-01-31 08:32:00,-10.0,-14.0,-100.00,NW,325,21.0,33.0,84,-99.99,,,-99.99,,2013-01-31 14:32:00,
2013-01-31 08:42:00,-10.0,-14.0,-100.00,NW,325,21.0,33.0,84,-99.99,,,-99.99,,2013-01-31 14:42:00,
2013-01-31 08:52:00,-10.0,-14.0,-100.00,NW,325,21.0,33.0,84,-99.99,,,-99.99,,2013-01-31 14:52:00,
2013-01-31 09:03:00,-10.0,-14.0,-100.00,NNW,330,19.0,30.0,83,-99.99,,,-99.99,,2013-01-31 15:03:00,
2013-01-31 09:12:00,-10.0,-14.0,-100.00,NNW,330,19.0,30.0,83,-99.99,,,-99.99,,2013-01-31 15:12:00,
2013-01-31 09:22:00,-10.0,-14.0,-100.00,NNW,330,19.0,30.0,83,-99.99,,,-99.99,,2013-01-31 15:22:00,
2013-01-31 09:32:00,-10.0,-14.0,-100.00,NNW,330,19.0,28.0,82,-99.99,,,-99.99,,2013-01-31 15:32:00,
2013-01-31 09:42:00,-10.0,-14.0,-100.00,NNW,330,19.0,28.0,82,-99.99,,,-99.99,,2013-01-31 15:42:00,
2013-01-31 09:52:00,-10.0,-14.0,-100.00,NNW,330,19.0,28.0,82,-99.99,,,-99.99,,2013-01-31 15:52:00,
2013-01-31 10:03:00,-10.0,-15.0,-100.00,NNW,330,21.0,28.0,81,-99.99,,,-99.99,,2013-01-31 16:03:00,
2013-01-31 10:12:00,-10.0,-15.0,-100.00,NNW,330,21.0,28.0,81,-99.99,,,-99.99,,2013-01-31 16:12:00,
2013-01-31 10:22:00,-10.0,-15.0,-100.00,NNW,330,21.0,28.0,81,-99.99,,,-99.99,,2013-01-31 16:22:00,
2013-01-31 10:33:00,-10.0,-14.0,-100.00,NNW,335,17.0,27.0,81,-99.99,,,-99.99,,2013-01-31 16:33:00,
2013-01-31 10:42:00,-10.0,-14.0,-100.00,NNW,335,17.0,27.0,81,-99.99,,,-99.99,,2013-01-31 16:42:00,
2013-01-31 10:52:00,-10.0,-14.0,-100.00,NNW,335,17.0,27.0,81,-99.99,,,-99.99,,2013-01-31 16:52:00,
2013-01-31 11:02:00,-10.0,-14.0,-100.00,NNW,335,16.0,27.0,81,-99.99,,,-99.99,,2013-01-31 17:02:00,
2013-01-31 11:12:00,-10.0,-14.0,-100.00,NNW,335,16.0,27.0,81,-99.99,,,-99.99,,2013-01-31 17:12:00,
2013-01-31 11:23:00,-10.0,-14.0,-100.00,NNW,335,16.0,27.0,81,-99.99,,,-99.99,,2013-01-31 17:23:00,
2013-01-31 11:32:00,-9.0,-13.0,-100.00,NNW,335,17.0,24.0,81,-99.99,,,-99.99,,2013-01-31 17:32:00,
2013-01-31 11:44:00,-9.0,-13.0,-100.00,NNW,335,17.0,24.0,81,-99.99,,,-99.99,,2013-01-31 17:44:00,
2013-01-31 11:53:00,-9.0,-13.0,-100.00,NNW,335,17.0,24.0,81,-99.99,,,-99.99,,2013-01-31 17:53:00,
2013-01-31 12:02:00,-9.0,-13.0,-100.00,NW,325,19.0,26.0,81,-99.99,,,-99.99,,2013-01-31 18:02:00,
2013-01-31 12:12:00,-9.0,-13.0,-100.00,NW,325,19.0,26.0,81,-99.99,,,-99.99,,2013-01-31 18:12:00,
2013-01-31 12:22:00,-9.0,-13.0,-100.00,NW,325,19.0,26.0,81,-99.99,,,-99.99,,2013-01-31 18:22:00,
2013-01-31 12:32:00,-9.0,-14.0,-100.00,NW,320,21.0,28.0,79,-99.99,,,-99.99,,2013-01-31 18:32:00,
2013-01-31 12:43:00,-9.0,-14.0,-100.00,NW,320,21.0,28.0,79,-99.99,,,-99.99,,2013-01-31 18:43:00,
2013-01-31 12:52:00,-9.0,-14.0,-100.00,NW,320,21.0,28.0,79,-99.99,,,-99.99,,2013-01-31 18:52:00,
2013-01-31 13:02:00,-9.0,-14.0,-100.00,NW,320,19.0,24.0,78,-99.99,,,-99.99,,2013-01-31 19:02:00,
2013-01-31 13:12:00,-9.0,-14.0,-100.00,NW,320,19.0,24.0,78,-99.99,,,-99.99,,2013-01-31 19:12:00,
2013-01-31 13:22:00,-9.0,-14.0,-100.00,NW,320,19.0,24.0,78,-99.99,,,-99.99,,2013-01-31 19:22:00,
2013-01-31 13:32:00,-9.0,-14.0,-100.00,NW,320,19.0,27.0,77,-99.99,,,-99.99,,2013-01-31 19:32:00,
2013-01-31 13:43:00,-9.0,-14.0,-100.00,NW,320,19.0,27.0,77,-99.99,,,-99.99,,2013-01-31 19:43:00,
2013-01-31 13:52:00,-9.0,-14.0,-100.00,NW,320,19.0,27.0,77,-99.99,,,-99.99,,2013-01-31 19:52:00,
2013-01-31 14:02:00,-9.0,-13.0,-100.00,NW,310,17.0,26.0,79,-99.99,,,-99.99,,2013-01-31 20:02:00,
2013-01-31 14:11:00,-9.0,-13.0,-100.00,NW,310,17.0,26.0,79,-99.99,,,-99.99,,2013-01-31 20:11:00,
2013-01-31 14:22:00,-9.0,-13.0,-100.00,NW,310,17.0,26.0,79,-99.99,,,-99.99,,2013-01-31 20:22:00,
2013-01-31 14:31:00,-9.0,-14.0,-100.00,NW,305,17.0,26.0,78,-99.99,,,-99.99,,2013-01-31 20:31:00,
2013-01-31 14:42:00,-9.0,-14.0,-100.00,NW,305,17.0,26.0,78,-99.99,,,-99.99,,2013-01-31 20:42:00,
2013-01-31 14:52:00,-9.0,-14.0,-100.00,NW,305,17.0,26.0,78,-99.99,,,-99.99,,2013-01-31 20:52:00,
2013-01-31 15:02:00,-9.0,-14.0,-100.00,NW,305,19.0,26.0,77,-99.99,,,-99.99,,2013-01-31 21:02:00,
2013-01-31 15:12:00,-9.0,-14.0,-100.00,NW,305,19.0,26.0,77,-99.99,,,-99.99,,2013-01-31 21:12:00,
2013-01-31 15:22:00,-9.0,-14.0,-100.00,NW,305,19.0,26.0,77,-99.99,,,-99.99,,2013-01-31 21:22:00,
2013-01-31 15:32:00,-9.0,-15.0,-100.00,NW,305,18.0,25.0,76,-99.99,,,-99.99,,2013-01-31 21:32:00,
2013-01-31 15:42:00,-9.0,-15.0,-100.00,NW,305,18.0,25.0,76,-99.99,,,-99.99,,2013-01-31 21:42:00,
2013-01-31 15:52:00,-9.0,-15.0,-100.00,NW,305,18.0,25.0,76,-99.99,,,-99.99,,2013-01-31 21:52:00,
2013-01-31 16:02:00,-9.0,-15.0,-100.00,NW,305,14.0,21.0,75,-99.99,,,-99.99,,2013-01-31 22:02:00,
2013-01-31 16:11:00,-9.0,-15.0,-100.00,NW,305,14.0,21.0,75,-99.99,,,-99.99,,2013-01-31 22:11:00,
2013-01-31 16:22:00,-9.0,-15.0,-100.00,NW,305,14.0,21.0,75,-99.99,,,-99.99,,2013-01-31 22:22:00,
2013-01-31 16:32:00,-10.0,-16.0,-100.00,WNW,300,12.0,20.0,74,-99.99,,,-99.99,,2013-01-31 22:32:00,
2013-01-31 16:42:00,-10.0,-16.0,-100.00,WNW,300,12.0,20.0,74,-99.99,,,-99.99,,2013-01-31 22:42:00,
2013-01-31 16:52:00,-10.0,-16.0,-100.00,WNW,300,12.0,20.0,74,-99.99,,,-99.99,,2013-01-31 22:52:00,
2013-01-31 17:02:00,-10.0,-17.0,-100.00,NW,315,17.0,21.0,73,-99.99,,,-99.99,,2013-01-31 23:02:00,
2013-01-31 17:12:00,-10.0,-17.0,-100.00,NW,315,17.0,21.0,73,-99.99,,,-99.99,,2013-01-31 23:12:00,
2013-01-31 17:22:00,-10.0,-17.0,-100.00,NW,315,17.0,21.0,73,-99.99,,,-99.99,,2013-01-31 23:22:00,
2013-01-31 17:32:00,-11.0,-18.0,-100.00,NW,305,13.0,19.0,71,-99.99,,,-99.99,,2013-01-31 23:32:00,
2013-01-31 17:42:00,-11.0,-18.0,-100.00,NW,305,13.0,19.0,71,-99.99,,,-99.99,,2013-01-31 23:42:00,
2013-01-31 17:52:00,-11.0,-18.0,-100.00,NW,305,13.0,19.0,71,-99.99,,,-99.99,,2013-01-31 23:52:00,
2013-01-31 18:01:00,-12.0,-18.0,-100.00,WNW,290,12.0,15.0,72,-99.99,,,-99.99,,2013-02-01 00:01:00,
2013-01-31 18:11:00,-12.0,-18.0,-100.00,WNW,290,12.0,15.0,72,-99.99,,,-99.99,,2013-02-01 00:11:00,
2013-01-31 18:22:00,-12.0,-18.0,-100.00,WNW,290,12.0,15.0,72,-99.99,,,-99.99,,2013-02-01 00:22:00,
2013-01-31 18:32:00,-13.0,-19.0,-100.00,WNW,290,11.0,16.0,73,-99.99,,,-99.99,,2013-02-01 00:32:00,
2013-01-31 18:42:00,-13.0,-19.0,-100.00,WNW,290,11.0,16.0,73,-99.99,,,-99.99,,2013-02-01 00:42:00,
2013-01-31 18:52:00,-13.0,-19.0,-100.00,WNW,290,11.0,16.0,73,-99.99,,,-99.99,,2013-02-01 00:52:00,
2013-01-31 19:01:00,-14.0,-20.0,-100.00,WNW,290,9.0,14.0,74,-99.99,,,-99.99,,2013-02-01 01:01:00,
2013-01-31 19:11:00,-14.0,-20.0,-100.00,WNW,290,9.0,14.0,74,-99.99,,,-99.99,,2013-02-01 01:11:00,
2013-01-31 19:21:00,-14.0,-20.0,-100.00,WNW,290,9.0,14.0,74,-99.99,,,-99.99,,2013-02-01 01:21:00,
2013-01-31 19:32:00,-14.0,-20.0,-100.00,WNW,290,9.0,14.0,74,-99.99,,,-99.99,,2013-02-01 01:32:00,
2013-01-31 20:02:00,-15.0,-20.0,-100.00,WNW,295,10.0,13.0,76,-99.99,,,-99.99,,2013-02-01 02:02:00,
2013-01-31 20:11:00,-15.0,-20.0,-100.00,WNW,295,10.0,13.0,76,-99.99,,,-99.99,,2013-02-01 02:11:00,
2013-01-31 20:21:00,-15.0,-20.0,-100.00,WNW,295,10.0,13.0,76,-99.99,,,-99.99,,2013-02-01 02:21:00,
2013-01-31 20:31:00,-16.0,-21.0,-100.00,WNW,290,9.0,12.0,76,-99.99,,,-99.99,,2013-02-01 02:31:00,
2013-01-31 20:42:00,-16.0,-21.0,-100.00,WNW,290,9.0,12.0,76,-99.99,,,-99.99,,2013-02-01 02:42:00,
2013-01-31 20:52:00,-16.0,-21.0,-100.00,WNW,290,9.0,12.0,76,-99.99,,,-99.99,,2013-02-01 02:52:00,
2013-01-31 21:02:00,-16.0,-21.0,-100.00,WNW,285,7.0,11.0,76,-99.99,,,-99.99,,2013-02-01 03:02:00,
2013-01-31 21:12:00,-16.0,-21.0,-100.00,WNW,285,7.0,11.0,76,-99.99,,,-99.99,,2013-02-01 03:12:00,
2013-01-31 21:21:00,-16.0,-21.0,-100.00,WNW,285,7.0,11.0,76,-99.99,,,-99.99,,2013-02-01 03:21:00,
2013-01-31 21:32:00,-16.0,-21.0,-100.00,West,275,7.0,9.0,78,-99.99,,,-99.99,,2013-02-01 03:32:00,
2013-01-31 21:42:00,-16.0,-21.0,-100.00,West,275,7.0,9.0,78,-99.99,,,-99.99,,2013-02-01 03:42:00,
2013-01-31 21:52:00,-16.0,-21.0,-100.00,West,275,7.0,9.0,78,-99.99,,,-99.99,,2013-02-01 03:52:00,
2013-01-31 22:02:00,-17.0,-21.0,-100.00,WNW,285,9.0,12.0,78,-99.99,,,-99.99,,2013-02-01 04:02:00,
2013-01-31 22:11:00,-17.0,-21.0,-100.00,WNW,285,9.0,12.0,78,-99.99,,,-99.99,,2013-02-01 04:11:00,
2013-01-31 22:21:00,-17.0,-21.0,-100.00,WNW,285,9.0,12.0,78,-99.99,,,-99.99,,2013-02-01 04:21:00,
2013-01-31 22:32:00,-17.0,-22.0,-100.00,WNW,285,9.0,13.0,78,-99.99,,,-99.99,,2013-02-01 04:32:00,
2013-01-31 22:41:00,-17.0,-22.0,-100.00,WNW,285,9.0,13.0,78,-99.99,,,-99.99,,2013-02-01 04:41:00,
2013-01-31 22:52:00,-17.0,-22.0,-100.00,WNW,285,9.0,13.0,78,-99.99,,,-99.99,,2013-02-01 04:52:00,
2013-01-31 23:03:00,-18.0,-23.0,-100.00,West,265,7.0,9.0,78,-99.99,,,-99.99,,2013-02-01 05:03:00,
2013-01-31 23:12:00,-18.0,-23.0,-100.00,West,265,7.0,9.0,78,-99.99,,,-99.99,,2013-02-01 05:12:00,
2013-01-31 23:22:00,-18.0,-23.0,-100.00,West,265,7.0,9.0,78,-99.99,,,-99.99,,2013-02-01 05:22:00,
2013-01-31 23:32:00,-18.0,-23.0,-100.00,West,265,7.0,9.0,78,-99.99,,,-99.99,,2013-02-01 05:32:00,